BREEZE-M R/B, 38343

Orbit data source: Space-Track

BREEZE-M R/B, 38343 is space debris in HEO originally from a launch on Thu, 17 May 2012 UTC launched from the Tyuratam Missile And Space Complex (TTMTR). Debris objects in space refer to the collection of defunct objects orbiting the Earth. Examples of debris include non-operational satellites, rocket bodies, and fragments generated from explosions, collisions, or faulty payload assembly.

Loading next visibility...
Identifier
38343, 2012-026B
Orbit
HEO
Country
Flag of CISCIS
Related business
Manufacturer
Khrunichev
Mission
Spacecraft
Bus & Motor
BRIZ, Unknown motor
Mass
~1,600 kg wet, 1,600 kg dry
Launch date (UTC)
2012-05-17 (14 years ago)
Launch vehicle
Unknown
Launch site
Tyuratam Missile And Space Complex (TTMTR)
Object type
Payload
Rocket body
Debris
Shape & HBR
Cyl, 2.0 m
Radar Cross Section
15.135 m², Large (>1 m²)

Expand to show TLE details & history
Last TLE update: 1 day ago

TLE from 1 day ago
0 BREEZE-M R/B
1 38343U 12026B   25353.92083602 -.00000042  00000-0  00000+0 0  9996
2 38343   9.9993 150.7536 4106561  19.0540 352.5689  1.76702067 87404
Epoch: 2025-12-19T22:06Z
TLE epoch observation values (Epoch: 2025-12-19T22:06:00.232Z)
Latitude
-0.00002°
Longitude
90.4058°
Altitude
10,961.002 km
Speed
5.673 km/s
True Right ascension
10h 02m 38s
True Declination
0° 00' 00"
Sunlit
Object was in daylight at epoch
Visualization orbit readout
Latitude
Unknown
Longitude
Unknown
Altitude
Unknown
Speed
Unknown
Apparent Right ascension
Unknown
Apparent Declination
Unknown
Sunlit
N/A
Visualization observer readout
Local Sidereal Time
22:16:52
Azimuth
Unknown
Elevation
Unknown
Doppler factor
Unknown
Orbital elements
Apogee altitude
34,393.456 km
Perigee altitude
10,655.419 km
Semi-major axis
28,902.575 km
Eccentricity
0.41066
Inclination
9.9993°
RAAN
150.7536°
Arg. of periapsis
19.054°
True anomaly
340.70635°
Mean anomaly
352.5689°
Eccentric anomaly
347.46048°
Mean motion
0.44171 °/min
Orbital period
815.01 mins
BSTAR
0
Loading maneuver chart data...
Computing Atmospheric mass density...
Loading historical data...
Loading historical data...
Loading historical data...
Loading historical data...
Loading historical data...
Loading historical data...
Loading historical data...

Documentation

Showing up to 5 results
|